Location: Brompton
(51.4000°N, 0.5333°E)
Time: 09:40:17
(UTC+00:00)

Cosmos 1869 Rocket - Pass Details

Date: 11 May 2021
Orbit: 604 x 633 km, 82.5° (Epoch: 12 June)

Event Time Altitude Azimuth Distance (km) Brightness Sun altitude
Rises 22:07:23 0° 346° (NNW) 2,875 8.6 -16.7°
Reaches altitude 10° 22:09:38 10° 342° (NNW) 1,966 7.4 -16.8°
Maximum altitude 22:13:53 57° 265° (W) 717 3.9 -17.1°
Enters shadow 22:16:05 26° 196° (SSW) 1,191 4.6 -17.2°
